EW3016 Weather Reports


Display with metric or nautical units.
time (UTC)temp
F
wind
direction
speed
MPH
gust
MPH
rain 1hr
in
rain 24hr
in
rain mn
in
humidity
%
barometer
mb
20260502193017 47 248 5.0 14.0 0.00 0.12 0.01 46 1011.8
20260502190016 47 248 5.0 15.0 0.00 0.12 0.01 46 1012.0
20260502163016 48 293 5.0 13.0 0.00 0.12 0.01 45 1012.0
20260502123016 40 293 3.0 12.0 0.00 0.12 0.01 87 1012.2
20260502113016 38 0.0 7.0 0.00 0.12 0.01 93 1012.1
20260502110016 38 0.0 4.0 0.00 0.12 0.01 93 1012.1
20260502103016 37 293 1.0 5.0 0.00 0.12 0.01 93 1011.9
20260502070017 40 293 2.0 12.0 0.01 0.12 0.01 92 1011.1
20260502063018 41 248 1.0 7.0 0.01 0.12 0.01 93 1011.2
20260502060017 42 0.0 3.0 0.00 0.11 0.00 93 1011.4
20260502053017 42 0.0 0.0 0.00 0.11 0.00 93 1011.4
20260502050017 42 0.0 3.0 0.00 0.11 0.00 92 1011.4
20260502043017 42 0.0 0.0 0.00 0.11 0.00 91 1011.5
20260502040017 42 0.0 0.0 0.01 0.11 0.11 91 1011.2
20260502033017 42 0.0 5.0 0.03 0.11 0.11 90 1011.1
20260502030017 42 0.0 4.0 0.02 0.10 0.10 90 1011.3
20260502023017 42 0.0 0.0 0.02 0.08 0.08 89 1011.3
20260502020017 43 0.0 3.0 0.03 0.08 0.08 89 1011.4
20260502013017 43 0.0 2.0 0.04 0.06 0.06 87 1011.1
20260502010017 44 0.0 4.0 0.05 0.05 0.05 85 1011.2
20260502003017 46 0.0 0.0 0.02 0.02 0.02 78 1010.8
20260502000017 47 0.0 0.0 0.00 0.00 0.00 73 1010.6
20260501233017 47 0.0 0.0 0.00 0.00 0.00 70 1010.1
20260501230017 47 0.0 3.0 0.00 0.00 0.00 71 1010.2
20260501223017 48 180 1.0 8.0 0.00 0.00 0.00 70 1010.2
20260501220017 50 248 1.0 11.0 0.00 0.00 0.00 60 1010.6
20260501213037 51 248 2.0 14.0 0.00 0.00 0.00 57 1010.4
20260501210018 51 248 3.0 12.0 0.00 0.00 0.00 56 1010.4
20260501203017 52 248 5.0 13.0 0.00 0.00 0.00 53 1010.3
20260501200016 54 248 4.0 14.0 0.00 0.00 0.00 49 1010.4